Theta_e
324 325 325 326 325 325 325 326 324 326 327 325 323 323 323 322 322 323 323 324 325 325 324 325 325 326 325 324 325 316 317 306 304 302 300 301 312 319 320 323 322 322 314 308 303 304 303 303 302 301 303 302 298 300 297 297 295 301 298 295 293 293 291 293 291 292 290 290 290 288 290 292 290 287 288 288 287 288 288 286 290 290 288 290 290 287 287 288
324 324 325 325 325 325 325 325 326 324 324 323 322 322 322 322 323 323 323 324 325 325 322 323 324 324 325 324 323 320 314 304 303 302 300 308 320 320 320 320 320 320 314 306 304 304 302 301 300 301 301 299 299 297 298 295 297 299 294 294 292 294 292 292 292 292 290 290 292 291 291 292 290 290 288 287 288 287 287 288 289 288 290 291 290 288 287 289
323 323 323 324 324 325 324 325 325 323 323 322 322 322 322 323 323 323 323 325 325 325 323 322 322 323 321 324 321 314 308 302 302 298 302 318 319 319 319 319 319 315 311 307 303 303 302 300 300 299 298 297 296 295 298 294 297 292 295 293 293 292 290 290 290 291 289 291 290 290 289 289 289 289 288 286 288 286 287 289 288 288 289 291 291 289 288 288
322 323 323 323 324 325 323 323 325 323 323 323 322 323 323 323 323 323 324 326 325 326 324 324 322 320 320 317 320 314 307 303 296 298 304 316 320 318 318 318 318 311 305 302 302 301 300 301 301 301 298 297 296 295 296 293 295 292 295 293 292 291 290 290 289 289 288 291 291 290 288 287 289 288 288 288 287 287 289 292 292 291 291 293 294 289 288 288
321 322 322 323 323 325 325 324 325 324 323 323 323 323 323 323 323 323 324 324 325 325 325 324 324 321 318 317 318 310 306 297 295 301 304 319 317 316 316 315 316 306 305 300 302 300 302 301 299 298 299 295 296 295 292 293 291 293 289 288 289 289 290 288 288 287 288 288 291 288 288 289 289 287 287 288 287 290 293 293 294 293 294 294 292 290 288 288
321 321 323 322 322 323 325 324 324 323 323 322 323 323 323 323 322 323 323 323 324 325 325 325 324 320 318 312 312 309 303 293 299 300 312 317 315 314 314 308 311 307 305 302 302 301 301 300 300 298 296 295 292 294 292 292 290 293 288 288 289 288 289 287 288 286 288 289 289 288 290 288 287 288 288 287 288 292 291 290 292 292 293 292 291 290 288 288
320 321 321 320 322 323 323 323 325 324 324 323 323 322 323 322 322 322 322 323 323 323 325 323 323 321 318 316 316 305 299 296 299 303 308 312 313 311 310 305 306 307 306 304 301 301 298 298 298 295 294 293 291 291 290 291 291 295 290 288 287 287 288 285 287 285 286 288 289 288 288 288 287 286 287 286 289 292 291 288 289 289 288 288 288 289 289 289
320 320 320 320 320 322 322 322 322 323 322 322 322 322 322 321 321 322 322 322 322 321 323 322 320 320 316 311 308 300 298 295 300 303 305 309 303 302 306 304 302 306 301 298 299 300 299 298 296 296 295 295 292 293 292 291 293 293 289 287 287 288 286 286 287 286 286 285 286 287 287 288 288 287 284 286 289 291 292 288 287 287 287 286 287 288 289 289
320 320 319 319 320 320 320 320 321 321 323 322 322 322 323 321 320 321 322 322 322 321 320 319 319 315 315 315 303 299 294 299 300 300 300 298 300 300 302 301 301 302 299 299 297 299 300 296 296 297 295 293 292 294 293 292 292 291 289 288 288 287 287 286 287 286 286 287 286 287 287 288 285 285 284 288 291 292 292 289 288 287 286 287 287 288 288 289
320 320 319 319 319 320 319 319 320 321 322 322 323 323 323 321 321 321 322 322 324 324 320 319 322 317 313 305 304 296 297 299 299 301 299 297 300 301 300 299 300 302 301 298 299 300 300 297 296 297 297 293 293 291 290 293 291 289 289 289 288 286 287 287 287 287 286 287 286 286 287 288 284 285 286 290 287 286 288 288 287 286 287 288 288 288 288 288
320 319 318 319 319 319 320 320 320 320 321 321 322 322 322 321 321 322 323 322 323 324 320 320 317 310 304 301 300 294 299 300 302 301 299 298 299 298 297 297 299 302 301 299 297 296 297 298 298 298 301 295 294 290 291 289 289 289 289 289 288 288 287 287 287 286 287 288 285 286 285 287 284 284 286 291 285 287 287 287 286 285 287 288 288 288 288 288
320 318 319 319 319 319 320 320 319 319 320 321 321 321 321 320 320 322 323 322 322 320 320 317 312 304 304 301 297 296 299 301 302 300 300 299 298 296 296 297 299 300 302 298 297 297 297 298 300 301 295 296 291 290 289 290 289 288 290 289 288 288 287 287 287 287 286 287 285 286 283 282 283 283 290 290 286 286 285 286 286 286 286 287 288 287 287 288
319 318 318 319 319 319 320 320 320 321 320 320 320 319 319 319 320 321 322 320 321 316 316 315 307 309 307 298 297 300 299 301 300 299 301 301 297 297 298 298 299 300 301 299 297 297 297 298 301 296 296 296 293 291 292 292 289 290 290 289 289 289 288 286 286 285 285 286 284 285 285 290 285 288 291 287 287 285 285 286 287 287 287 287 287 287 287 288
318 318 318 318 319 319 320 320 320 320 320 320 319 319 319 319 319 320 320 319 321 320 318 312 307 308 305 296 299 300 299 300 299 300 298 301 300 300 300 299 299 299 299 297 297 299 300 301 299 295 298 295 292 293 291 290 292 290 289 290 288 288 289 286 286 286 286 285 285 287 284 290 291 290 291 288 286 286 287 290 290 288 287 287 287 287 287 288
318 317 318 318 318 319 320 320 320 319 319 320 319 318 318 318 318 319 319 317 318 317 320 312 307 308 300 297 300 301 309 300 301 298 298 300 300 301 300 300 298 297 298 298 298 296 297 299 300 295 292 292 295 293 291 290 289 289 289 288 288 287 289 286 287 286 286 285 286 287 284 288 291 291 289 287 286 285 286 289 290 289 288 287 287 287 287 288
317 318 319 317 317 317 318 319 319 318 319 319 318 317 317 318 318 318 317 315 315 312 313 311 308 304 299 294 297 306 301 298 298 298 297 299 299 300 298 297 298 299 298 296 296 297 299 298 293 293 292 292 293 292 291 291 290 289 288 286 286 286 287 288 284 285 285 285 286 286 285 288 289 288 285 285 285 285 286 288 289 289 288 288 288 288 288 288
318 318 319 317 316 317 318 318 317 317 318 319 318 317 316 316 315 319 315 313 307 308 306 305 301 304 297 298 300 297 295 298 297 299 299 298 298 297 299 300 298 300 298 297 298 299 298 297 289 292 294 292 290 291 289 289 288 288 287 286 286 284 286 286 285 285 285 285 285 286 283 286 289 291 289 284 286 286 285 287 288 289 289 289 289 288 288 288
318 318 318 317 316 317 317 317 317 317 318 318 316 318 314 311 314 312 313 311 311 308 304 306 306 305 296 298 293 295 296 295 298 297 295 298 297 299 299 299 297 298 298 297 298 296 294 294 294 292 292 292 291 291 287 285 286 286 287 286 287 286 284 285 285 286 285 286 283 285 284 285 287 290 291 292 289 287 287 287 288 289 289 289 289 288 288 288
318 318 317 317 316 317 317 317 317 317 316 315 317 317 313 313 313 309 307 304 307 304 301 300 301 296 294 293 294 296 296 296 295 298 299 299 299 297 298 297 297 297 297 294 294 294 294 294 295 293 290 290 290 289 288 286 286 286 285 285 284 283 286 285 288 285 284 285 285 285 284 286 288 289 291 291 290 288 287 288 288 288 288 288 288 288 288 288
318 317 317 317 317 317 316 317 317 316 315 318 323 313 323 312 314 305 307 303 296 295 296 296 294 294 294 294 295 298 296 295 296 298 299 298 298 297 297 297 297 298 297 294 295 291 291 292 289 289 290 288 285 285 285 284 285 284 284 283 284 284 285 287 285 284 286 283 284 285 286 286 286 288 290 291 289 287 287 287 287 288 288 288 288 287 288 288
318 317 316 316 317 317 317 317 317 316 314 317 318 317 300 302 300 296 295 296 295 293 296 295 294 293 294 294 295 295 295 295 296 297 298 298 296 296 296 296 296 295 290 288 292 291 293 291 289 289 287 286 285 284 285 285 285 285 284 283 284 284 284 286 284 283 286 283 285 286 284 285 287 289 290 289 287 287 287 287 287 288 288 288 288 289 290 291
317 316 316 317 316 317 318 317 316 314 312 315 315 308 303 309 304 304 305 295 296 297 293 292 290 294 294 294 293 293 293 294 295 297 299 300 297 296 296 294 292 293 290 291 292 293 292 290 288 286 285 285 284 284 285 285 285 284 284 284 283 287 285 286 282 283 284 283 283 284 282 284 287 289 290 288 287 288 287 287 288 288 288 289 289 289 289 289
317 317 316 316 317 318 317 317 314 313 314 318 306 306 307 306 306 308 305 302 297 296 299 298 296 294 295 295 294 292 294 292 292 295 295 297 297 294 295 294 293 290 290 291 291 290 290 291 285 285 285 285 284 284 284 284 284 284 284 284 285 285 283 284 284 281 284 282 282 283 281 284 288 289 287 286 285 286 286 285 286 287 287 289 290 290 289 289
315 316 316 317 317 317 317 315 314 317 305 307 307 305 303 305 302 304 306 296 294 295 298 295 293 294 294 295 296 295 293 292 291 294 297 297 295 293 295 292 290 290 292 289 289 291 290 286 284 284 284 286 285 283 284 285 285 285 284 284 284 284 284 282 284 284 285 285 282 282 283 285 288 287 288 286 284 283 286 285 285 286 287 288 288 287 288 288
315 316 316 317 317 317 315 312 314 306 304 308 309 304 302 303 302 304 304 295 295 296 295 295 293 294 296 297 296 296 292 291 293 293 295 296 293 295 293 290 292 291 290 287 288 288 288 283 284 284 284 284 285 284 284 285 285 286 285 285 284 283 282 283 283 282 284 283 280 282 281 285 286 287 287 289 287 288 287 286 289 290 288 288 287 289 291 290
315 316 316 316 317 315 314 312 307 309 308 312 307 302 299 301 304 305 302 292 289 295 299 292 296 294 296 295 296 294 293 294 293 294 298 295 295 295 291 292 290 292 288 288 290 289 287 281 283 285 284 283 284 284 284 285 285 283 285 283 283 282 281 282 281 282 282 281 282 282 280 280 288 286 289 286 286 288 289 289 291 290 290 289 289 290 291 292
314 315 315 315 315 314 313 313 305 308 304 305 305 303 301 304 302 305 295 290 286 293 292 296 295 294 298 295 293 296 291 292 293 294 293 294 294 298 292 293 291 289 290 292 288 287 284 283 282 283 284 284 284 284 284 284 284 284 282 283 282 281 281 281 280 281 281 283 283 281 282 279 280 287 285 284 285 288 289 291 290 291 291 291 290 291 291 292
315 315 316 315 312 310 308 307 310 313 304 304 302 302 302 303 302 304 299 280 280 299 292 296 296 299 297 294 293 293 293 292 293 292 293 294 294 295 293 293 292 292 287 289 285 289 285 283 283 283 283 284 285 285 285 286 285 284 281 283 282 281 281 281 281 281 281 278 281 281 282 279 280 285 284 285 286 288 289 290 291 292 293 293 293 293 293 293
314 315 316 316 313 309 314 313 315 311 303 299 299 302 303 304 305 300 289 280 290 292 300 294 299 296 295 295 293 290 293 294 292 294 293 292 293 294 292 292 290 289 287 290 288 286 286 284 286 286 285 286 285 283 284 285 284 283 283 282 281 281 281 281 281 280 279 278 279 279 280 278 281 287 287 284 285 286 288 290 291 293 293 293 293 294 295 294
314 314 316 314 309 314 314 312 309 305 301 299 301 301 303 302 301 292 283 276 294 288 294 296 295 293 293 293 294 291 292 290 290 292 293 292 292 294 289 290 291 290 288 288 288 286 284 287 285 285 285 285 284 282 282 283 282 284 283 282 281 280 281 280 281 280 279 276 280 278 278 279 277 285 286 286 286 288 288 290 291 292 293 293 294 294 294 292
311 311 311 315 319 308 305 307 307 303 301 301 302 306 304 304 292 285 275 287 292 293 294 294 292 295 291 290 291 292 290 288 292 291 292 294 292 294 292 289 291 289 286 287 286 286 285 285 286 285 284 284 285 284 283 282 282 283 283 283 284 281 279 280 279 279 277 279 277 277 277 279 275 283 287 289 286 285 287 287 289 291 292 293 294 294 293 292
310 309 309 312 308 305 306 305 305 303 302 300 310 310 302 289 289 283 283 296 287 289 290 290 288 288 289 287 286 287 286 290 289 291 289 287 288 290 290 287 288 285 286 286 287 285 285 285 284 285 286 284 285 285 284 284 284 284 284 284 281 280 281 278 279 277 278 278 277 277 278 277 277 283 288 289 289 289 287 289 289 289 289 290 291 292 292 291
310 309 308 307 308 309 307 303 300 301 302 307 308 304 299 288 279 285 283 286 286 288 289 287 288 288 286 286 287 285 284 288 289 288 285 287 287 288 281 286 284 286 283 284 284 285 286 280 284 284 284 285 284 285 285 283 283 284 284 282 280 277 275 273 277 278 278 278 277 277 278 275 282 285 289 288 290 291 289 288 288 288 288 289 290 290 289 290
308 309 309 304 305 304 303 300 299 300 304 310 303 297 290 281 282 286 284 287 287 287 287 287 287 285 284 288 285 283 287 285 286 287 287 287 286 287 286 284 285 287 285 285 284 283 282 283 284 284 284 283 284 284 284 284 284 283 282 282 282 280 276 272 276 274 276 277 277 277 276 277 280 284 286 287 288 288 287 286 287 287 288 289 288 287 289 290
306 306 306 304 304 301 302 299 302 301 309 311 300 292 283 283 282 285 286 288 286 287 287 284 285 285 286 284 284 284 284 285 286 285 288 286 287 286 286 286 283 285 286 284 284 282 283 283 282 281 281 281 283 282 281 283 283 281 282 283 281 280 284 278 278 277 275 274 276 274 277 283 284 287 289 289 287 286 284 285 286 290 290 288 288 290 290 290
308 308 308 305 305 302 303 302 301 303 311 308 299 287 286 286 285 285 287 288 286 287 287 285 285 286 285 285 283 284 287 284 286 286 286 284 285 285 283 283 284 284 286 284 284 284 282 283 281 282 282 281 282 281 282 283 281 281 281 281 281 282 282 279 276 273 273 273 273 281 279 283 286 287 287 289 288 289 289 289 289 289 289 289 289 289 289 289
307 308 305 305 307 305 303 301 300 307 307 301 291 285 288 285 285 286 291 287 287 285 285 285 287 284 284 285 284 283 285 285 285 285 286 284 285 284 284 283 281 283 283 284 285 284 281 283 280 281 281 280 282 281 282 282 283 283 280 282 280 281 282 280 275 274 274 272 275 277 277 279 280 278 288 288 286 287 287 287 288 288 289 288 288 288 289 289
307 303 302 305 304 304 303 301 303 306 306 300 287 291 283 287 284 286 286 286 286 284 286 286 286 285 283 282 285 283 285 284 287 285 285 286 284 285 285 284 282 282 283 284 284 284 285 281 282 279 280 282 281 282 282 281 283 282 281 283 280 278 277 278 275 271 272 272 274 276 276 277 279 280 285 284 284 285 286 286 287 287 287 287 288 288 289 289
301 305 301 301 304 302 304 302 307 309 305 290 288 288 287 286 284 287 286 285 286 285 286 285 285 284 284 284 284 282 281 284 284 285 283 285 284 284 284 284 283 283 282 283 284 285 285 280 282 278 280 281 282 283 281 280 282 282 282 282 280 280 279 277 278 276 276 272 272 274 274 276 282 283 283 284 284 284 285 285 285 286 287 287 288 288 288 288
306 305 298 302 302 302 302 307 310 303 298 288 289 287 285 286 286 285 283 285 287 286 286 285 283 285 284 285 282 285 282 281 283 284 283 284 284 285 284 284 284 283 283 281 283 285 284 284 279 282 280 281 281 282 283 284 280 278 280 279 279 278 279 279 276 276 276 274 273 272 271 278 283 285 284 284 284 285 285 284 286 286 287 287 288 288 288 288
297 302 299 306 303 301 307 302 296 291 293 287 287 286 285 287 286 285 282 282 286 286 285 285 286 286 285 284 283 283 283 282 281 284 283 284 284 284 283 283 282 284 283 282 283 284 283 283 280 283 282 282 284 281 280 281 283 283 282 281 282 277 276 274 274 274 272 275 273 271 271 279 284 284 286 285 285 285 286 286 286 286 287 287 287 288 288 288
302 292 300 304 302 307 312 299 287 283 289 290 289 287 288 289 286 285 285 285 285 287 286 285 283 284 284 285 285 282 283 284 282 281 283 283 284 283 282 278 280 282 283 284 283 283 282 283 281 279 282 284 281 279 279 280 280 280 282 281 281 281 280 277 272 274 271 273 269 272 269 274 285 286 286 285 286 287 287 287 286 286 286 287 287 288 288 288
299 298 302 301 300 308 300 290 286 287 288 286 284 284 285 287 285 285 286 286 286 286 286 286 286 285 285 285 284 284 283 284 283 284 283 283 283 283 281 279 280 281 282 282 281 282 284 282 279 281 284 281 279 279 279 279 280 280 279 278 279 279 280 279 278 276 275 274 273 274 268 275 285 286 286 287 288 287 288 287 286 286 286 287 287 287 287 288
297 298 300 302 299 309 301 289 287 288 286 285 285 286 285 287 285 285 285 285 287 285 286 286 285 285 284 283 284 284 285 282 284 283 284 281 284 282 280 280 279 283 282 282 282 285 280 284 280 278 279 281 280 279 279 277 279 280 281 280 277 275 273 271 273 274 273 275 275 274 270 277 284 288 288 288 287 286 286 286 286 285 285 286 286 287 287 288
293 294 295 299 298 301 298 294 290 285 283 284 284 285 285 285 286 285 286 286 285 286 285 285 284 285 285 283 284 283 284 284 283 283 281 280 284 282 280 278 278 282 282 283 282 284 282 282 280 277 274 272 274 275 277 280 280 280 278 276 274 276 274 275 275 275 271 273 273 273 274 280 284 286 286 286 285 285 285 285 286 286 286 285 286 286 286 287
298 288 292 297 295 293 288 285 292 291 283 283 285 284 282 285 286 285 285 286 285 285 284 285 284 285 284 283 284 283 284 284 283 282 280 282 282 282 281 278 279 283 281 281 281 282 281 278 280 281 280 278 280 281 281 281 281 278 280 278 276 274 274 275 276 273 272 275 273 276 276 277 280 282 283 284 283 282 283 284 284 285 285 286 286 286 286 287
292 292 288 288 294 292 287 289 290 289 289 289 286 283 283 284 284 284 285 287 285 285 284 285 285 284 283 283 283 283 283 282 283 280 280 280 282 281 276 279 281 284 282 283 281 282 279 279 280 279 279 281 282 280 281 279 277 279 278 278 278 274 273 274 274 275 278 273 272 278 279 277 278 281 282 282 282 283 283 284 284 284 285 285 285 286 286 287
292 290 293 291 289 290 291 289 287 287 284 287 285 283 283 284 284 284 283 284 285 284 285 284 283 285 285 285 283 282 281 281 280 280 280 277 279 282 282 280 282 281 282 282 281 282 280 278 275 273 277 279 279 279 280 278 278 278 278 278 278 276 273 273 274 277 277 273 273 278 279 277 279 281 281 282 282 282 283 284 284 285 285 285 285 285 285 285
292 288 291 287 291 287 286 285 286 289 288 285 287 284 283 283 284 284 284 284 284 284 285 284 285 285 285 284 284 283 281 281 283 280 275 278 278 280 282 280 281 282 281 281 281 276 280 279 273 270 275 278 279 278 278 278 277 276 277 279 279 277 276 276 276 278 277 275 278 278 278 277 279 280 281 283 284 284 284 284 284 283 283 283 284 285 285 284
290 295 290 289 289 286 284 285 285 288 287 286 285 285 284 283 285 284 282 284 284 284 284 283 286 283 283 283 284 282 284 285 283 282 281 279 280 279 280 281 281 282 282 280 279 280 279 278 275 273 275 278 275 275 277 278 277 277 278 278 278 278 277 277 275 276 276 275 276 276 276 275 281 283 283 284 284 284 283 282 282 282 282 283 284 284 284 283
294 292 296 293 289 286 285 285 288 288 286 286 286 284 284 282 284 285 285 285 285 285 284 285 285 284 281 282 283 284 287 283 284 284 282 282 281 283 282 281 283 280 279 278 278 278 277 278 273 274 276 278 276 276 277 278 276 276 277 278 278 278 276 277 275 279 277 275 277 276 275 276 280 283 283 283 282 282 280 281 281 281 283 284 283 283 282 283
293 289 291 299 287 284 287 282 284 286 288 289 287 286 286 287 284 283 286 284 282 284 286 286 285 285 283 282 283 285 284 283 283 283 283 282 283 282 282 281 282 282 280 279 272 278 276 277 277 276 275 276 278 277 277 276 275 273 275 277 278 278 279 279 280 280 279 278 275 274 274 279 281 282 280 280 281 281 281 281 281 282 283 283 282 282 282 283
Wind_Speed
9 8 8 7 7 7 6 5 5 5 5 5 7 7 7 7 7 5 5 4 4 6 5 5 4 4 3 3 4 2 5 8 15 16 17 6 6 15 15 14 13 12 5 2 1 3 0 3 3 5 1 3 5 1 1 3 4 3 1 1 2 2 4 5 6 7 3 3 8 10 11 9 7 5 3 2 5 7 3 7 7 8 11 10 3 2 2 1
8 8 7 7 6 6 6 5 4 5 6 6 7 8 7 7 7 4 5 4 5 5 6 6 5 3 3 3 3 4 4 6 8 16 13 7 10 15 17 14 12 9 2 1 1 2 2 1 3 2 1 3 3 3 3 3 4 2 2 1 3 1 3 1 2 5 3 2 9 8 8 9 2 7 6 6 6 8 9 11 10 12 14 13 12 9 4 5
8 8 7 7 6 5 5 4 4 5 6 6 6 7 7 6 6 4 4 3 4 4 5 6 5 4 2 2 1 3 2 3 9 14 14 12 16 17 16 14 11 5 2 4 1 0 2 1 1 0 4 4 6 2 2 5 4 2 3 1 1 3 4 1 0 5 3 2 8 8 6 6 2 3 6 6 3 6 12 9 9 12 16 15 15 10 9 8
8 7 7 6 6 5 3 2 2 4 5 6 5 7 8 6 6 4 4 3 3 3 3 3 3 4 5 3 2 2 1 1 9 8 10 15 17 17 16 13 10 1 1 4 1 5 4 5 7 4 3 6 2 2 3 5 3 1 2 1 2 3 3 2 1 3 1 2 5 7 5 6 5 4 7 3 7 11 12 12 11 12 15 13 12 11 10 10
8 7 7 6 6 6 5 5 4 3 4 6 5 8 7 5 5 4 4 4 4 4 4 4 4 4 5 4 4 2 4 2 4 6 11 13 17 16 15 10 8 1 1 4 3 4 3 4 2 5 4 3 2 1 4 3 3 3 4 3 3 2 0 4 2 3 1 2 5 6 8 6 5 4 10 9 9 9 3 5 10 13 11 7 8 10 10 12
7 6 6 7 6 6 6 5 4 3 3 6 6 8 5 5 4 4 5 6 6 6 5 4 4 2 3 4 3 2 2 1 4 8 12 14 16 15 12 9 3 1 3 1 1 4 0 3 2 2 2 3 5 2 3 2 2 2 2 2 1 2 2 2 2 2 2 4 6 7 3 4 7 5 9 12 17 6 5 4 2 4 7 3 1 7 11 13
7 6 6 7 6 5 5 4 4 3 4 6 7 7 4 5 3 4 5 6 7 6 5 3 3 1 6 1 3 8 9 5 3 8 13 15 15 12 7 3 1 2 4 1 3 2 3 5 6 3 4 4 2 5 2 2 3 2 4 3 3 1 2 2 2 1 1 2 1 3 2 6 4 9 2 12 15 15 3 1 1 2 3 2 6 9 12 13
7 6 6 5 5 5 4 4 3 4 5 5 6 5 3 4 4 5 6 7 7 7 5 4 2 1 7 0 0 5 6 4 9 5 14 13 12 13 2 3 8 2 10 5 2 3 1 6 6 4 4 1 1 1 3 1 6 3 4 1 3 2 3 2 2 2 1 2 0 2 4 4 4 6 3 13 15 13 10 5 2 1 2 4 7 9 11 12
6 4 4 5 4 4 4 4 3 5 5 5 6 2 3 3 4 4 4 5 6 5 6 6 1 2 2 3 3 2 4 3 2 8 10 11 11 6 9 5 10 7 5 3 5 1 2 2 3 3 2 4 1 4 4 3 3 5 4 3 3 3 3 2 2 1 1 1 2 4 7 4 1 3 12 21 15 9 9 6 8 6 7 8 10 11 11 12
4 3 4 3 3 4 4 4 4 7 7 8 6 4 3 4 4 4 2 3 3 4 7 8 1 1 3 3 3 2 2 0 2 6 9 7 10 9 14 8 6 3 4 6 7 7 3 4 1 6 13 8 2 4 5 5 2 1 6 4 3 3 1 2 1 1 1 1 0 5 8 5 2 1 9 4 2 1 3 8 6 7 12 12 10 9 10 12
4 4 4 3 4 5 4 3 4 7 8 8 6 5 4 4 4 4 3 2 4 4 6 7 5 3 3 2 2 5 1 1 1 5 9 5 10 13 11 10 7 5 9 10 10 5 5 8 4 3 2 3 5 7 6 3 1 5 5 6 5 2 1 1 1 1 2 2 1 4 10 5 2 2 12 6 4 2 3 6 7 8 10 10 11 10 9 10
4 3 3 4 5 5 4 4 5 6 7 5 5 5 5 4 4 3 3 2 5 6 5 5 4 1 5 12 8 4 0 1 1 4 5 9 7 4 4 6 9 5 2 8 6 5 3 3 3 1 3 5 4 4 6 2 2 3 2 2 1 0 4 3 3 1 1 1 1 2 11 9 8 10 15 3 2 2 4 7 8 9 9 9 9 9 9 10
3 3 4 6 6 5 4 4 4 5 5 4 4 5 4 5 3 3 2 4 4 6 6 3 1 2 0 6 3 0 1 1 2 3 5 5 2 1 5 6 11 11 8 9 4 2 1 1 2 13 4 2 3 2 5 2 3 1 4 3 3 4 4 4 2 1 3 0 2 3 8 2 12 15 7 5 3 3 4 7 7 7 7 8 8 8 9 9
3 2 6 7 6 4 5 5 5 5 5 5 5 4 5 5 4 2 3 3 1 3 6 5 2 4 5 4 1 0 1 1 2 3 11 8 3 3 3 6 7 6 6 12 6 3 7 7 15 12 4 4 5 3 6 3 1 2 1 2 1 5 1 2 1 2 5 2 2 4 6 9 3 8 7 3 3 5 8 8 7 6 7 7 7 8 9 10
3 3 7 6 5 5 5 4 5 5 6 5 4 4 5 5 5 4 5 2 3 2 1 3 3 1 4 2 3 1 4 2 6 4 5 9 4 2 5 4 7 6 6 7 5 1 1 2 4 6 5 2 4 4 3 1 1 1 2 1 2 2 1 4 2 3 4 2 2 4 7 9 5 1 6 2 3 4 8 9 9 7 7 7 7 8 9 10
3 5 6 5 6 6 4 5 5 7 7 6 5 2 5 3 3 5 6 4 5 5 1 1 6 4 8 3 3 3 2 3 6 5 1 6 6 3 2 2 1 3 1 4 2 0 5 11 10 2 4 3 3 1 1 2 2 1 0 4 3 2 5 5 4 1 2 2 3 5 9 14 10 3 2 4 4 4 7 10 9 10 10 8 7 7 7 9
3 4 4 5 5 4 2 4 5 7 8 7 4 1 3 5 1 1 5 6 5 2 1 1 3 1 1 2 1 0 3 1 2 2 4 3 5 2 2 1 3 3 2 3 3 3 9 5 1 2 3 3 1 0 4 1 1 1 1 2 2 4 6 5 5 3 1 1 4 6 7 17 16 11 5 7 6 5 9 13 13 12 11 9 8 8 9 11
3 3 3 4 4 2 3 5 5 6 7 7 1 1 1 5 4 2 1 5 2 5 4 2 2 2 4 1 1 3 1 4 5 5 3 2 4 4 5 5 1 1 2 1 5 6 5 2 3 1 2 2 1 1 1 4 3 4 3 4 2 3 6 8 8 3 3 3 6 9 14 22 20 17 16 13 6 8 13 13 14 13 11 10 9 9 11 11
1 2 3 4 5 3 3 5 4 6 7 3 3 2 2 1 4 6 6 4 1 2 2 3 3 2 1 1 2 3 1 1 2 4 6 7 4 1 3 2 3 3 0 2 2 3 4 2 2 2 2 1 1 1 2 2 1 3 3 4 5 6 5 6 4 4 3 8 10 9 12 17 18 17 17 10 7 9 12 12 11 11 10 9 9 10 9 10
1 2 2 3 5 4 4 4 4 4 6 2 1 0 1 0 2 0 5 8 8 2 1 1 1 0 1 3 4 5 2 3 1 4 2 2 4 2 1 3 2 4 2 2 3 4 3 1 1 2 1 3 3 3 3 3 2 2 2 2 5 6 10 4 3 2 1 5 11 10 12 19 21 17 16 12 5 8 9 10 9 8 7 7 7 9 10 11
2 1 2 3 4 4 2 2 4 4 3 4 2 1 0 3 1 2 2 2 1 2 2 2 1 1 3 2 3 7 0 1 2 5 7 3 2 3 1 3 2 2 3 2 2 1 3 3 1 2 4 3 5 5 5 5 2 1 3 3 5 5 7 3 3 3 2 3 6 5 12 21 20 14 11 5 4 7 6 6 8 7 7 6 7 9 10 10
1 2 3 4 4 4 5 5 5 3 3 4 4 3 1 1 1 2 1 1 1 1 2 1 2 1 0 2 1 1 2 2 2 7 2 7 3 3 4 2 2 3 2 1 3 2 2 3 3 5 6 7 6 4 2 0 2 2 2 3 4 2 6 6 2 3 3 3 10 3 12 19 21 13 9 3 4 3 2 4 5 5 6 5 6 8 9 8
2 2 4 4 5 4 4 3 4 3 3 3 3 3 1 2 2 1 0 4 3 1 1 3 2 4 2 2 1 3 2 2 2 6 9 9 1 5 2 2 2 1 0 1 3 3 5 2 5 5 6 7 4 3 3 3 3 3 3 2 4 3 5 4 3 1 4 4 9 10 12 17 14 6 1 1 2 3 4 5 7 6 7 8 7 6 7 9
3 3 3 3 3 4 4 4 4 3 5 2 5 2 1 1 1 1 1 0 1 1 3 1 1 1 2 3 2 3 2 1 2 5 6 5 3 2 0 4 3 1 2 2 3 5 4 3 3 5 2 3 4 3 3 3 4 4 5 4 4 4 3 3 7 9 13 4 3 11 11 8 1 3 2 2 2 4 5 5 7 8 10 9 8 9 10 12
3 4 4 3 3 2 1 3 3 1 2 1 3 1 1 2 2 3 1 1 1 2 2 1 2 1 1 2 1 2 2 2 1 2 4 5 1 2 3 0 2 2 2 2 1 3 2 3 4 4 3 2 3 3 6 3 4 2 6 7 2 1 5 6 7 11 7 4 3 11 9 0 2 4 5 1 1 3 2 3 6 7 7 7 8 11 9 10
4 5 5 5 3 2 2 2 0 1 1 2 1 2 2 2 2 2 1 3 0 1 1 1 1 2 2 0 5 2 3 1 1 2 3 3 2 1 3 1 2 2 4 3 3 2 2 1 3 3 4 3 3 4 1 4 3 3 1 1 2 1 2 6 8 7 5 6 2 2 4 6 1 7 4 1 3 4 3 4 6 3 5 5 7 7 7 7
4 4 7 7 4 1 1 1 1 2 1 1 3 2 2 3 1 1 1 1 0 1 2 0 2 1 1 2 2 1 3 2 1 1 1 3 2 2 2 1 1 2 1 2 1 3 5 4 3 1 4 4 3 5 6 8 1 2 3 4 3 2 6 6 3 2 7 5 6 1 3 6 8 4 3 3 4 6 4 5 5 5 6 6 5 5 6 6
4 5 6 7 8 2 1 5 2 1 1 1 2 2 2 2 1 2 0 1 1 2 2 1 1 0 1 0 2 1 1 5 2 2 1 2 2 2 2 3 3 1 3 2 8 3 2 5 7 6 4 4 5 1 5 8 4 2 3 1 2 3 4 2 3 5 3 4 3 3 3 4 5 2 4 2 4 2 3 4 5 4 3 3 4 5 6 6
6 6 5 5 4 6 5 2 1 1 1 2 2 0 1 2 1 2 1 1 1 2 1 2 1 1 4 3 2 2 2 4 2 3 3 2 4 2 3 0 1 4 1 3 6 2 2 0 4 4 3 5 2 1 2 7 5 4 4 4 3 3 2 1 3 2 1 2 3 4 2 4 10 4 2 2 1 2 1 2 3 2 3 4 5 6 6 5
8 7 5 3 1 1 3 1 5 1 1 2 1 2 2 1 1 0 2 3 1 0 0 2 2 4 3 4 2 5 1 1 0 6 3 1 3 2 4 1 2 3 3 1 4 2 1 1 1 2 4 3 3 3 0 2 4 4 4 4 4 3 2 2 0 0 2 3 1 5 1 3 6 4 2 2 3 1 2 2 2 2 3 3 3 4 4 5
11 11 7 2 1 0 1 1 2 2 2 0 2 2 1 3 1 3 1 0 1 1 1 3 1 4 5 4 3 3 1 4 3 4 2 1 1 3 2 1 2 2 2 2 3 2 3 2 3 1 2 1 1 4 2 0 1 3 2 3 7 4 3 3 1 2 2 3 5 2 2 3 4 4 2 1 1 1 1 3 8 8 10 9 8 7 7 7
12 14 13 9 1 1 2 1 2 1 1 3 2 1 2 2 0 2 1 2 1 1 2 2 1 2 3 1 2 5 4 4 3 4 4 3 3 3 2 3 1 5 3 0 0 3 3 4 2 2 1 2 3 3 3 2 3 3 3 4 5 5 2 2 4 3 2 4 4 2 3 6 11 12 11 10 8 4 3 5 6 9 11 12 11 12 9 8
6 8 14 8 1 3 3 1 2 1 2 1 3 2 1 2 1 1 1 2 1 2 0 1 2 3 1 4 2 3 2 1 3 2 1 0 2 1 2 2 2 3 7 2 4 4 1 3 1 4 2 2 3 4 2 3 4 3 4 2 4 6 4 6 5 2 3 4 1 2 3 6 9 10 8 9 9 4 5 4 5 4 7 9 10 9 9 9
9 4 6 3 5 3 1 2 2 1 1 2 1 1 2 1 1 1 1 2 2 1 1 1 2 3 1 2 3 3 2 3 3 2 1 1 1 4 2 1 1 2 1 1 5 3 4 2 4 3 2 2 3 2 3 3 1 1 2 3 1 1 3 7 4 7 7 5 2 2 2 4 1 2 2 3 6 6 3 1 3 4 5 6 7 8 9 8
5 9 5 2 1 2 3 1 1 1 1 2 5 2 1 2 1 1 1 2 1 1 2 1 2 3 0 2 3 1 1 1 2 5 1 1 3 1 2 1 1 1 2 2 1 0 3 4 3 3 2 2 3 1 1 1 2 3 1 2 1 2 1 7 3 4 4 4 4 4 5 2 3 5 7 2 3 3 1 2 1 6 2 3 5 7 10 11
0 3 2 3 3 3 3 2 1 2 1 2 1 1 1 1 1 2 0 1 1 2 3 3 2 1 1 1 1 2 1 1 2 3 2 2 1 2 2 1 1 0 1 2 1 2 1 3 3 1 1 1 2 1 1 2 2 3 3 2 2 3 2 3 2 3 1 3 7 2 7 8 4 6 2 1 4 7 5 11 13 12 10 8 10 11 12 12
3 2 2 4 3 4 3 2 1 1 3 3 3 2 1 1 1 2 1 1 1 1 1 4 2 2 2 2 1 1 0 2 1 2 3 1 2 3 1 1 1 1 1 2 1 2 2 4 3 2 2 2 2 2 1 3 3 1 3 2 4 1 4 1 4 1 3 6 4 2 5 12 5 3 3 9 12 10 12 13 13 14 15 15 12 12 13 13
2 3 1 2 4 5 2 2 2 3 3 2 1 3 0 0 1 1 1 1 1 1 0 2 0 1 1 0 1 1 3 2 2 0 4 1 2 3 1 1 2 1 1 2 2 0 1 6 2 2 1 2 1 2 3 2 3 3 2 2 3 1 2 4 0 5 5 6 5 3 4 7 4 7 4 9 7 11 13 15 17 20 20 18 16 17 16 15
3 2 1 1 2 3 3 2 1 3 3 1 0 1 1 2 1 1 1 2 1 1 2 1 1 2 2 1 1 1 1 2 2 1 3 1 2 2 1 1 2 2 2 1 2 1 2 3 1 2 2 2 2 3 3 4 2 3 2 2 2 2 4 3 1 3 1 9 4 4 5 8 4 2 4 10 8 10 13 12 13 16 17 17 16 16 16 15
1 0 1 1 3 3 4 2 3 4 3 1 1 1 1 2 1 1 0 1 1 1 1 0 1 1 2 1 2 2 1 2 2 1 1 1 3 2 2 1 0 3 1 2 1 1 1 2 5 3 3 2 3 7 3 2 3 3 3 1 2 0 2 2 1 3 4 7 6 7 7 4 1 3 2 6 6 9 11 12 11 13 17 18 17 16 17 18
1 1 1 4 8 5 2 9 6 2 1 1 1 1 1 0 2 1 1 1 1 1 1 2 3 2 0 1 1 2 2 2 2 2 3 2 3 2 1 0 1 2 1 1 2 2 2 4 5 2 4 6 4 5 3 3 2 1 2 3 3 4 2 2 6 5 1 3 6 3 11 6 1 3 1 3 5 7 11 14 18 19 20 20 18 18 18 18
1 1 2 5 8 4 2 2 2 1 0 1 0 2 1 1 1 1 1 1 3 0 2 1 1 1 2 2 1 2 2 2 2 1 3 3 2 1 2 2 1 3 1 1 0 2 2 2 3 6 7 6 4 4 2 1 2 2 2 2 1 0 1 3 8 1 0 3 3 2 5 7 2 3 2 2 5 11 14 18 19 20 20 20 20 19 19 18
1 1 2 4 6 2 5 3 0 0 0 1 1 1 0 1 1 1 2 2 2 0 1 1 2 3 2 3 2 2 3 3 5 2 1 2 3 1 3 0 2 1 2 0 0 2 1 2 3 8 7 2 4 4 4 3 2 2 2 2 2 3 2 4 4 3 4 1 4 4 6 6 1 3 4 5 13 13 15 18 22 21 20 19 20 21 21 21
2 0 1 0 1 1 2 1 1 0 0 1 1 1 1 1 2 1 2 1 2 2 1 1 0 2 1 1 2 2 4 2 2 3 2 1 2 4 2 2 1 2 2 1 1 2 2 2 1 6 5 2 3 4 3 1 1 1 1 2 1 4 4 2 3 1 3 6 11 8 15 2 3 3 12 17 16 18 19 20 20 21 20 21 22 20 20 22
3 0 1 4 7 5 2 1 2 0 0 0 2 2 1 1 1 2 1 1 1 0 1 1 1 1 2 1 2 1 4 5 4 2 2 2 1 3 3 1 2 1 1 3 2 2 3 2 1 5 7 8 6 7 7 4 2 0 1 0 2 3 4 1 4 1 4 1 2 5 13 12 14 18 18 16 18 19 20 20 20 18 19 21 21 22 22 23
0 0 3 3 7 5 5 1 1 2 1 1 1 1 1 0 2 0 2 1 0 1 1 1 1 1 2 2 3 3 4 3 6 1 1 1 2 1 1 1 1 1 1 1 4 2 1 1 3 5 6 8 6 3 4 3 5 6 6 4 1 2 2 1 1 3 7 2 4 9 12 21 21 19 15 18 18 20 21 22 21 22 22 22 22 22 23 23
1 1 1 0 2 5 3 2 1 0 0 2 1 2 2 1 2 0 1 1 1 2 1 2 2 3 2 1 3 3 1 1 2 2 5 4 0 1 1 1 1 1 5 2 2 0 1 3 2 6 8 10 9 10 1 1 8 9 6 7 3 4 3 5 5 6 3 5 11 6 14 12 20 21 18 19 20 21 21 22 22 20 22 22 22 24 25 23
0 1 2 1 0 0 0 1 2 3 2 1 0 1 1 2 1 0 1 1 0 1 2 2 2 5 2 2 2 1 0 2 2 3 1 1 2 0 1 1 1 4 5 1 1 1 1 2 1 2 6 3 6 10 6 4 4 6 6 6 6 3 5 6 6 11 7 5 11 18 19 17 19 20 19 17 20 21 22 23 22 23 23 24 25 26 25 20
3 2 1 3 1 1 1 1 1 3 4 2 1 1 1 2 4 2 0 2 0 1 4 2 3 6 6 2 3 2 1 2 2 2 2 0 2 2 2 1 2 3 1 0 1 1 1 4 1 1 8 9 8 4 2 2 2 2 4 3 4 4 6 8 10 11 8 11 16 19 21 21 16 17 16 19 19 18 19 20 21 24 25 26 25 24 22 21
1 2 0 4 5 3 1 0 1 1 0 1 0 2 2 4 3 1 1 3 1 1 1 4 4 1 2 4 5 3 4 5 4 4 0 2 2 3 2 1 1 1 1 0 1 0 1 1 5 1 4 3 5 3 2 1 4 3 5 1 2 3 4 6 5 8 8 11 13 16 15 14 8 10 18 18 17 17 20 24 25 24 24 25 24 22 22 25
1 1 3 5 1 0 1 2 1 1 1 0 1 1 1 3 3 1 2 1 3 2 6 3 2 2 2 2 4 10 5 4 5 5 2 1 4 2 1 1 1 1 1 1 1 2 1 1 3 2 4 4 4 1 2 3 3 3 2 5 10 6 5 4 3 9 7 12 13 13 10 8 13 20 19 19 18 19 20 22 24 24 25 23 21 24 27 28
1 1 1 2 1 2 0 1 0 1 0 1 1 1 2 1 1 2 2 2 1 2 1 2 0 2 2 1 6 4 6 4 4 3 2 2 2 2 1 2 2 1 2 2 2 1 1 1 1 1 4 6 2 4 6 2 6 3 2 7 8 5 5 7 8 10 8 8 9 9 10 13 17 18 22 23 23 23 21 21 24 26 22 19 24 27 27 28
Wind_Direction
52 46 43 42 50 47 42 36 45 24 45 65 62 49 31 14 347 18 30 11 21 32 15 356 358 19 20 31 352 334 6 46 49 39 43 35 330 313 310 311 311 321 22 321 295 265 14 26 42 344 80 29 358 9 1 50 6 261 241 304 244 60 202 154 187 184 28 157 161 176 190 199 197 165 178 167 225 237 236 233 229 238 246 243 231 140 54 126
51 50 42 37 43 51 44 39 24 39 45 46 55 56 37 15 339 2 31 13 36 31 30 14 360 26 41 21 12 355 83 29 47 43 39 339 333 335 329 324 330 340 214 231 215 180 272 30 72 52 156 72 317 44 268 62 333 8 136 259 339 181 56 305 70 126 159 99 163 173 186 212 197 161 163 215 208 204 236 238 228 239 243 238 236 230 229 172
45 47 45 39 37 47 53 32 47 54 44 34 35 52 43 5 331 346 22 19 37 23 29 31 24 4 33 120 107 351 271 13 36 20 346 353 340 340 334 331 335 6 245 322 323 351 357 28 117 275 43 117 10 63 4 35 327 50 281 283 42 52 58 87 251 133 6 114 140 160 182 219 119 182 125 228 228 185 228 229 203 230 242 228 223 199 197 194
42 40 47 41 25 18 46 51 73 70 59 41 31 45 36 349 317 337 16 4 17 8 356 4 359 29 8 331 188 248 151 257 46 326 332 343 339 336 333 332 339 9 55 52 97 92 107 113 66 51 109 64 64 310 33 7 292 53 256 26 91 135 143 125 228 59 45 322 142 146 113 207 209 189 188 219 245 232 235 234 229 222 229 234 209 187 186 195
38 34 45 38 20 7 358 3 359 43 72 62 42 48 26 334 314 348 13 359 347 345 332 338 324 7 354 10 116 261 161 230 41 301 334 336 337 330 329 339 337 43 151 141 127 84 81 56 92 44 38 103 40 116 47 9 18 85 41 21 85 139 30 77 51 57 98 339 128 134 164 206 101 191 220 217 233 264 234 228 224 245 252 251 182 189 187 199
33 24 41 40 21 3 353 349 356 14 53 76 60 51 13 318 325 13 24 11 1 354 351 345 308 7 43 117 106 126 251 252 349 329 338 334 328 327 324 339 4 7 150 348 6 23 216 38 197 38 59 44 1 57 46 331 313 120 108 111 78 5 14 63 117 104 188 154 156 173 197 100 193 226 216 227 233 250 66 72 333 274 278 283 280 185 198 204
30 13 34 31 8 348 341 357 343 333 21 64 65 52 354 308 345 14 23 22 15 7 356 337 302 192 199 113 50 71 78 95 269 333 340 329 316 320 311 328 29 166 219 191 31 93 31 87 71 78 98 89 30 71 19 330 220 347 123 153 79 338 55 29 70 122 325 269 197 59 83 227 161 262 149 235 237 247 121 86 48 345 310 268 218 208 210 209
27 10 30 26 2 342 344 1 355 31 31 46 69 54 328 303 7 11 22 29 28 22 347 333 3 10 185 77 81 54 58 32 340 344 331 322 322 343 327 326 17 32 56 46 318 97 64 44 103 171 43 8 90 111 342 192 39 79 109 167 97 71 54 56 98 107 355 66 44 228 230 252 230 284 6 255 250 240 234 172 206 249 252 221 228 218 216 220
22 4 27 22 358 1 5 351 4 37 24 15 43 13 300 340 7 9 24 29 34 23 354 342 296 59 213 99 135 95 46 341 351 318 331 331 336 321 43 25 349 74 102 41 358 43 246 99 130 247 178 133 217 106 11 318 92 24 72 107 102 80 67 60 132 87 25 126 202 242 254 239 191 321 257 258 264 257 236 217 230 234 244 230 226 226 219 223
6 4 32 39 28 29 2 357 26 50 36 25 12 345 320 353 352 350 15 37 5 5 354 6 119 86 69 105 169 163 72 55 305 340 343 320 333 17 34 25 4 42 62 1 41 17 9 155 82 125 112 76 47 43 286 350 64 77 95 75 86 53 49 83 295 90 351 322 116 276 276 266 104 275 285 125 30 75 194 235 222 227 240 237 230 227 227 230
344 27 37 53 45 36 15 22 49 52 42 26 0 352 353 347 336 325 348 31 18 30 12 354 18 182 62 259 154 87 126 295 40 359 348 320 16 36 15 1 339 62 80 57 51 5 35 101 100 133 355 94 106 46 47 78 161 77 109 115 85 83 56 73 38 17 308 232 64 281 271 256 121 191 253 249 137 133 232 227 221 225 239 242 235 231 234 236
313 53 59 62 49 37 18 41 39 39 38 22 4 1 360 345 331 332 334 17 38 54 38 7 14 51 64 65 58 67 94 307 315 15 356 16 46 39 19 1 28 37 44 95 57 21 6 121 210 16 115 220 83 162 77 210 56 94 291 250 124 304 231 163 238 49 291 275 343 284 274 234 185 230 237 237 122 165 239 255 237 232 239 243 241 237 235 237
333 73 74 59 49 35 18 17 11 17 21 6 13 6 351 346 342 23 27 69 57 78 56 9 339 66 341 62 37 304 154 264 189 294 6 35 110 133 54 29 47 43 30 94 62 9 282 253 101 82 20 66 90 9 119 138 67 226 74 352 269 215 234 110 103 116 240 170 313 273 314 129 199 223 220 136 157 163 235 247 237 233 236 240 237 238 243 240
330 70 65 54 37 28 29 3 346 351 359 354 4 11 358 353 0 40 66 82 110 82 48 17 41 64 83 98 97 230 255 114 219 341 8 325 216 110 126 54 64 68 42 85 90 29 84 84 85 104 55 47 107 228 140 88 252 262 35 266 316 316 62 120 160 108 237 80 295 280 289 291 152 192 214 113 194 223 258 259 245 232 235 240 239 240 246 246
330 41 59 43 21 22 23 359 342 346 352 345 351 15 19 354 358 21 23 92 29 346 19 338 28 145 63 66 262 43 123 216 31 3 354 358 348 171 20 9 57 55 60 71 97 34 80 227 111 52 64 320 112 171 86 139 51 355 264 154 155 303 356 151 120 198 266 108 242 275 265 272 304 273 131 107 179 213 252 259 257 244 241 240 244 248 251 255
342 26 40 18 8 6 10 7 350 342 346 343 344 24 32 7 352 25 50 44 341 13 110 208 7 74 112 100 89 159 61 31 5 351 3 352 343 16 310 323 257 97 160 78 109 192 51 61 61 55 121 198 166 56 137 227 164 61 16 297 311 297 307 293 120 124 309 292 202 252 280 304 298 92 93 144 163 206 255 264 258 254 251 251 252 256 263 270
342 38 23 3 1 315 3 21 357 344 339 335 341 35 36 17 254 68 48 39 11 311 279 74 141 307 28 98 292 103 359 24 292 328 352 39 351 329 244 85 36 6 58 174 51 180 17 66 264 180 34 57 14 315 293 238 298 142 127 303 300 291 321 317 126 125 46 244 264 207 244 257 271 275 244 168 192 224 254 266 265 260 259 257 261 261 265 266
350 31 13 336 309 304 12 25 0 354 339 329 339 275 66 31 42 163 18 28 339 55 44 141 142 171 90 214 143 14 53 290 355 329 264 350 348 5 28 47 288 344 15 231 40 37 339 83 252 59 138 103 192 208 309 321 343 316 332 319 312 255 210 275 300 64 316 186 255 268 255 268 271 274 280 278 220 236 260 264 269 270 269 269 266 266 264 266
300 36 11 323 317 345 14 7 3 9 342 359 111 90 45 79 62 71 51 330 232 263 181 9 347 253 54 9 292 276 276 343 277 328 353 3 351 54 82 122 48 315 14 324 46 342 3 107 202 148 241 210 139 278 296 6 355 302 289 306 289 309 315 305 319 64 353 294 279 256 263 283 289 292 291 291 258 251 264 266 267 267 266 265 261 263 261 259
211 60 346 332 328 334 16 349 5 2 6 70 8 234 35 3 15 184 20 39 51 43 8 37 180 337 244 32 345 334 250 283 269 32 357 35 308 292 64 346 61 78 26 299 351 58 306 243 269 285 336 99 98 69 72 89 64 96 163 242 272 288 287 271 256 67 27 280 261 265 280 285 286 287 291 303 298 269 265 258 258 260 257 256 255 256 258 258
151 51 347 348 334 314 20 348 4 357 93 107 111 55 194 150 32 26 35 38 167 360 313 182 39 16 33 327 334 347 331 164 86 33 18 271 255 267 15 320 30 231 53 310 300 33 252 288 268 114 94 121 132 125 119 110 91 281 267 254 294 243 288 330 289 104 192 320 290 286 297 288 286 292 296 309 293 272 251 252 256 258 258 260 260 265 259 264
59 31 4 351 333 331 340 12 11 40 68 102 71 125 158 206 355 11 149 140 108 149 247 47 247 44 192 215 92 264 218 316 172 16 66 343 359 301 29 26 28 322 41 250 232 206 267 273 87 100 106 102 109 128 110 181 160 167 268 296 279 270 276 265 66 153 189 272 283 338 311 295 291 307 307 284 269 277 301 272 276 290 279 269 259 260 273 277
30 360 18 351 345 339 353 350 25 22 16 27 77 85 113 2 324 268 310 108 86 294 4 25 33 10 25 103 110 215 292 47 313 15 355 343 60 45 311 265 43 67 213 50 292 307 291 102 108 117 147 126 113 125 139 126 205 227 235 262 300 16 348 320 147 35 209 222 294 318 296 278 294 298 310 69 254 295 294 273 267 261 266 256 259 276 281 281
9 13 0 7 356 353 350 350 294 40 30 72 90 48 29 337 353 354 9 358 125 85 23 61 315 18 28 343 14 329 13 107 246 1 22 352 51 244 287 62 131 229 235 22 254 258 292 64 84 144 192 208 153 152 181 226 267 194 235 262 273 297 302 224 313 324 289 260 289 275 257 256 275 168 165 152 212 267 266 255 249 247 245 259 281 279 253 258
10 11 2 5 15 11 9 303 37 27 207 337 55 92 14 17 7 7 184 158 174 92 199 151 152 214 22 204 1 280 113 140 325 303 329 343 120 244 67 204 285 240 115 118 80 253 229 93 150 159 156 149 176 209 206 245 274 270 204 231 288 309 283 287 305 321 307 231 107 354 335 210 137 254 254 350 286 253 164 252 248 230 229 234 253 254 258 245
18 22 13 16 15 50 239 35 122 135 300 76 48 75 38 50 25 324 71 67 266 327 243 79 213 124 204 106 358 70 168 278 73 9 340 29 290 337 146 138 348 299 143 163 286 325 24 106 218 185 183 156 213 250 145 190 279 296 83 188 129 207 295 296 315 329 310 317 50 340 297 288 155 280 273 64 313 290 181 235 265 242 229 219 237 250 256 255
20 37 36 19 360 294 59 199 57 148 332 108 53 21 28 65 2 146 261 328 232 116 355 19 240 86 216 355 336 260 285 96 91 75 83 16 30 329 278 94 149 89 59 235 266 207 135 147 169 223 181 202 224 256 179 193 227 262 77 129 118 252 292 311 305 266 272 312 285 145 251 284 302 291 72 27 309 285 275 237 236 249 252 242 243 262 269 278
20 42 37 27 2 329 93 122 147 177 3 27 1 11 43 93 72 316 250 39 274 31 16 300 17 51 253 292 297 275 330 314 280 127 289 320 273 155 289 226 233 212 163 190 277 65 167 157 194 179 203 218 241 343 138 194 229 39 164 15 317 307 295 271 264 287 299 318 271 131 138 263 246 190 117 13 280 183 215 221 231 232 252 274 282 277 274 286
30 35 17 29 33 48 59 74 127 97 42 350 14 304 95 150 192 90 118 233 122 67 135 73 35 183 352 213 56 48 319 19 292 37 303 266 28 295 241 105 166 99 26 246 260 110 303 251 206 194 187 245 89 37 192 169 236 108 122 114 107 132 110 209 270 253 245 271 274 121 347 288 292 316 167 126 224 285 232 225 241 247 283 290 298 307 315 338
37 30 34 2 43 298 23 51 50 51 38 45 358 162 147 173 242 257 10 262 11 326 181 300 275 315 350 324 232 20 231 66 107 316 22 236 25 94 60 358 142 150 199 131 257 34 36 216 341 230 245 24 105 38 136 38 65 117 182 227 188 171 164 136 122 266 239 230 176 79 354 310 307 330 339 138 101 36 337 324 289 272 262 266 251 281 338 340
47 42 32 43 35 89 340 76 49 54 43 353 230 193 237 28 93 94 217 237 53 4 194 29 337 5 21 12 315 58 148 349 350 345 191 83 200 82 152 195 161 220 221 224 225 141 166 114 210 83 39 111 78 118 84 177 132 222 259 296 283 192 150 176 168 202 260 279 101 35 357 308 286 300 135 187 73 193 281 307 310 328 332 337 339 350 348 339
56 55 49 59 61 274 26 58 12 356 357 247 209 36 45 249 71 230 246 10 273 7 15 334 99 25 25 63 231 357 344 330 19 25 357 20 311 276 154 274 32 301 250 139 239 125 216 179 64 77 323 271 175 227 137 185 202 234 254 257 319 307 303 268 171 264 203 300 105 87 318 274 223 244 286 291 278 247 187 272 343 339 326 326 327 328 328 322
60 73 67 53 58 35 65 15 334 345 283 277 72 54 29 84 270 262 281 310 348 355 61 177 303 340 351 293 149 348 195 298 19 114 288 156 268 215 31 294 359 252 286 62 297 294 280 63 183 123 154 66 275 245 172 196 164 233 271 322 306 320 320 282 296 217 257 105 123 115 20 254 278 284 276 270 290 5 56 43 334 314 307 314 311 312 311 306
47 33 70 16 58 70 21 29 22 321 2 37 325 339 51 332 248 103 298 276 321 19 353 346 313 202 201 286 29 327 251 152 344 2 250 273 226 277 149 151 213 156 212 285 288 20 298 268 137 213 165 39 248 294 345 330 246 320 67 274 316 260 291 305 315 303 314 318 106 150 286 236 314 63 103 318 307 332 31 339 297 273 276 282 287 282 276 285
68 63 94 103 114 81 53 53 328 267 257 40 51 73 94 265 211 241 218 333 288 280 212 98 268 335 138 105 344 224 301 320 69 314 194 277 269 241 311 106 166 314 81 278 111 295 234 275 59 350 347 314 196 74 304 95 183 111 5 358 233 213 337 261 356 304 323 332 285 174 230 234 248 351 307 354 337 59 146 161 195 339 296 248 274 308 330 332
306 26 45 42 4 7 13 3 306 219 231 44 79 48 223 198 360 177 22 61 58 319 314 172 143 292 314 241 91 84 158 285 10 340 238 218 311 268 70 350 152 148 266 269 50 269 154 230 69 103 190 139 37 274 218 296 285 121 204 226 53 14 260 287 141 94 168 184 239 197 273 263 231 251 245 300 53 40 38 14 351 334 332 332 338 338 334 336
40 317 68 345 1 360 341 12 301 191 59 92 95 278 213 295 350 203 33 280 344 30 316 350 6 353 330 304 325 6 343 292 277 358 296 137 260 169 233 107 351 187 40 331 247 166 287 302 120 201 187 116 323 316 23 5 321 112 238 93 111 20 340 231 290 170 225 262 276 125 253 287 332 315 55 20 11 11 9 352 344 340 342 342 341 341 338 336
62 56 77 357 320 321 286 313 331 47 74 90 206 252 98 216 351 303 41 138 226 193 315 226 324 360 263 320 319 82 48 316 26 253 291 171 305 137 97 129 117 285 334 242 273 47 108 289 149 292 10 114 149 245 205 103 1 294 9 73 273 243 210 128 246 281 291 262 273 193 258 264 255 271 3 359 4 0 356 347 347 346 341 337 338 339 340 339
69 78 2 311 308 312 307 300 75 58 77 59 204 315 177 286 349 66 360 339 324 274 251 203 306 32 96 210 279 263 356 305 3 316 315 100 265 115 26 341 147 179 214 221 233 93 216 278 303 150 153 54 232 212 262 139 103 78 187 169 31 245 267 232 236 313 92 280 301 269 125 283 167 159 33 342 5 2 340 345 340 331 330 335 335 336 336 337
32 9 302 155 311 315 280 198 55 47 71 268 162 246 62 274 119 40 298 281 132 215 227 165 206 293 198 253 92 316 83 238 262 305 230 28 291 96 163 92 208 157 182 252 304 304 218 116 283 111 246 280 238 186 246 156 162 147 191 202 131 54 346 314 287 225 265 295 282 293 284 270 64 124 321 348 8 342 335 332 330 326 332 335 335 335 335 332
347 105 263 334 339 306 322 43 46 50 108 46 304 228 175 274 147 208 277 255 315 32 273 202 165 217 336 334 198 178 278 224 220 236 221 263 210 283 105 166 357 139 148 37 213 225 218 200 256 269 247 228 250 42 11 12 12 225 210 226 201 164 209 239 267 100 328 238 273 267 270 276 283 168 265 22 342 330 339 338 334 334 333 335 335 334 334 330
171 262 295 355 336 339 67 53 51 297 15 196 290 178 154 148 176 112 127 156 279 150 22 104 30 265 148 215 348 198 245 261 213 256 223 236 145 270 80 19 290 337 243 231 226 53 305 352 265 265 252 285 73 81 39 13 149 42 301 251 104 324 300 253 283 248 183 228 24 270 308 287 124 229 128 294 328 345 344 340 333 332 333 333 332 331 330 328
49 170 293 352 340 36 68 74 107 62 106 9 314 15 25 200 156 101 195 206 207 333 99 247 187 181 229 252 196 235 201 261 184 218 164 243 268 42 80 325 278 229 248 233 229 186 152 237 260 251 260 103 131 122 127 97 160 188 124 98 182 218 231 286 300 12 285 167 275 240 218 253 273 134 219 307 343 342 336 339 335 330 330 330 332 331 329 330
99 67 27 333 314 131 74 255 21 333 333 210 128 104 256 345 190 144 226 207 225 165 233 183 49 253 33 100 192 244 167 278 181 237 246 116 278 87 65 31 349 203 232 28 279 120 246 178 194 300 298 209 153 160 158 78 225 198 261 149 339 70 63 111 99 187 270 226 241 277 274 350 138 313 317 326 331 333 336 335 334 329 329 331 332 331 329 328
116 326 313 309 6 30 236 183 156 152 307 7 339 273 347 194 224 332 301 183 228 8 174 241 13 112 142 126 225 339 249 247 308 129 13 237 287 104 73 64 321 254 34 314 254 334 241 265 191 288 307 312 323 323 324 337 23 113 206 348 160 202 138 240 262 187 261 54 214 249 281 285 301 305 310 324 331 332 333 331 329 329 328 329 328 328 327 324
135 166 316 345 10 46 81 313 44 131 126 193 285 68 195 297 126 142 239 106 52 81 349 62 133 206 108 171 246 236 230 172 207 315 344 268 257 90 22 327 256 350 315 263 356 288 266 20 251 247 262 275 298 14 103 356 300 296 311 271 173 128 37 189 273 252 265 295 238 252 268 287 297 302 317 327 334 332 329 330 329 330 330 328 326 324 324 323
147 78 16 337 340 56 69 12 42 239 183 150 266 163 317 210 318 68 53 232 128 229 141 237 176 186 188 202 255 282 208 280 218 351 242 232 297 335 121 320 2 354 346 267 356 105 62 279 239 255 258 261 308 303 275 152 283 293 303 314 111 144 164 195 220 278 62 316 283 217 238 268 291 305 323 330 332 329 327 329 331 330 330 327 324 322 322 327
286 95 82 102 233 74 341 68 32 89 52 290 159 95 276 330 23 276 165 309 242 212 255 165 182 251 194 194 111 284 173 243 150 241 10 163 325 293 200 126 222 348 313 80 351 290 287 264 43 117 255 255 289 283 294 285 251 265 290 283 302 129 162 189 228 246 263 260 277 297 298 294 297 307 321 329 330 327 330 331 330 329 325 323 323 326 328 334
51 77 126 313 252 102 20 10 8 104 79 24 86 135 259 203 260 204 148 138 164 179 206 279 235 212 209 161 202 265 203 314 274 182 207 230 237 331 284 143 122 4 10 127 73 77 215 249 10 133 286 288 278 292 344 202 179 187 246 326 329 208 218 221 253 269 238 238 259 281 292 289 296 303 320 329 332 333 330 328 330 329 327 322 324 327 335 335
195 182 169 8 76 90 352 311 58 69 105 6 185 234 191 192 235 179 239 201 250 175 122 235 260 106 172 182 204 217 219 234 304 295 108 82 281 171 283 312 60 81 293 120 358 95 237 312 75 308 308 314 86 98 94 165 217 175 163 223 11 230 251 237 268 275 267 258 260 269 282 286 292 328 328 329 331 335 334 335 332 327 323 324 326 334 335 331
37 355 139 138 107 44 284 25 83 91 152 172 211 209 215 197 256 276 276 223 251 196 182 218 74 104 67 211 229 249 290 319 313 315 357 212 278 64 286 37 306 156 65 127 90 6 333 289 83 1 324 297 124 290 301 229 211 206 134 38 18 4 353 353 273 302 301 293 301 297 286 312 334 334 329 328 331 337 339 333 330 325 323 325 333 335 331 328
87 129 288 103 88 318 314 68 9 226 228 185 198 155 209 349 139 61 280 122 7 342 292 280 71 313 234 184 252 291 12 1 16 11 299 354 343 44 35 23 12 283 180 147 335 204 357 300 307 357 302 271 146 283 339 130 132 167 174 41 7 351 326 305 283 285 276 278 304 319 323 332 331 334 330 330 337 339 337 336 326 321 319 336 339 332 328 325